Weather observations for the past three days for
Paso Robles Municipal Airport
Imperial (Metric)
Date Time (pdt) Wind (mph) Vis. (mi.) Weather Sky Cond. Temperature (ºF) Relative Humidity Wind Chill (°F) Heat Index (°F) Pressure Precipitation (in)
Air Dwpt 6 hour altimeter (in) sea level (mb) 1 hr 3 hr 6 hr
Max. Min.
19 10:53 Vrbl 3 10.00 Fair CLR 84 50 84 55.9 31% 82 30 1014.8
19 09:53 Calm 10.00 Fair CLR 75 53.1 46% 78 30.01 1015.4
19 08:53 Calm 10.00 Fair CLR 69.1 53.1 57% 30.02 1015.8
19 07:53 Calm 10.00 Fair CLR 64 52 65% 30.03 1016.0
19 05:53 Calm 10.00 Fair CLR 55.9 48.9 77% 30.01 1015.3
19 04:53 Calm 10.00 Fair CLR 57 50 72 57 78% 30 1014.9
19 03:53 Calm 10.00 Fair CLR 59 50 72% 30 1014.8
19 02:53 Calm 10.00 Fair CLR 61 51.1 70% 29.99 1014.8
19 01:53 N 3 10.00 Fair CLR 62.1 52 70% 30 1015.0
19 00:53 NW 7 10.00 Fair CLR 64.9 52 63% 30.01 1015.3
18 23:53 NW 7 10.00 Fair CLR 66.9 52 59% 30.01 1015.4
18 22:53 W 8 10.00 Fair CLR 72 51.1 102.9 72 48% 30 1015.1
18 21:53 NW 13 G 24 10.00 Fair CLR 78.1 50 37% 79 29.99 1014.5
18 20:53 NW 15 10.00 Fair CLR 81 48 32% 80 29.97 1014.0
18 19:53 W 17 G 26 10.00 Fair CLR 84.9 44.1 24% 82 29.95 1013.4
18 18:53 NW 13 G 18 10.00 Fair CLR 93 41 16% 89 29.92 1012.3
18 17:53 S 12 10.00 Fair CLR 95 48 20% 91 29.9 1011.7
18 16:53 Vrbl 6 10.00 Fair CLR 100.9 39.9 104 84 12% 96 29.91 1011.8
18 15:53 Calm 10.00 Fair CLR 102 30 8% 96 29.92 1012.0
18 14:53 NW 7 10.00 Fair CLR 100 32 9% 95 29.93 1012.6
18 13:53 W 6 10.00 Fair CLR 99 36 11% 94 29.95 1013.2
18 12:53 Vrbl 5 10.00 Fair CLR 95 45 18% 91 29.96 1013.7
18 11:53 Vrbl 6 10.00 Fair CLR 90 45 21% 86 29.98 1014.2
18 10:53 N 5 10.00 Fair CLR 84 48.9 84 55.9 30% 82 29.99 1014.5
18 09:53 NW 5 10.00 Fair CLR 75.9 52 43% 78 30 1015.0
18 08:53 Calm 10.00 Fair CLR 68 54 61% 30.01 1015.3
18 07:53 Calm 10.00 Fair CLR 63 53.1 70% 30 1015.1
18 06:53 Calm 10.00 Fair CLR 59 53.1 81% 30 1015.0
18 05:53 Calm 10.00 Fair CLR 57 51.1 81% 29.98 1014.5
18 04:53 NW 3 10.00 Fair CLR 59 52 73 59 78% 29.98 1014.2
18 03:53 NW 5 10.00 Fair CLR 60.1 52 75% 29.96 1013.8
18 02:53 W 3 10.00 Fair CLR 61 52 72% 29.97 1013.9
18 01:53 NW 5 10.00 Fair CLR 63 53.1 70% 29.96 1013.7
18 00:53 NW 9 10.00 Fair CLR 66 53.1 63% 29.97 1013.9
17 23:53 NW 10 10.00 Fair CLR 69.1 53.1 57% 29.97 1014.0
17 22:53 NW 10 10.00 Fair CLR 73 53.1 102 73 50% 29.97 1013.9
17 20:53 NW 16 G 24 10.00 Fair CLR 79 50 36% 79 29.97 1014.3
17 19:53 NW 16 10.00 Fair CLR 84 43 24% 81 29.96 1013.7
17 18:53 W 12 10.00 Fair CLR 91.9 41 17% 88 29.93 1012.8
17 17:53 S 9 10.00 Fair CLR 93 57 30% 92 29.93 1012.5
17 16:53 SW 8 10.00 Fair CLR 99 55 102 73.9 23% 97 29.93 1012.5
17 15:53 N 6 10.00 Fair CLR 100.9 48 17% 97 29.95 1013.2
17 14:53 Vrbl 5 10.00 Fair CLR 99 53.1 21% 97 29.97 1013.9
17 13:53 Calm 10.00 Fair CLR 93.9 53.1 25% 91 29.99 1014.7
17 12:53 W 6 10.00 Fair CLR 90 54 29% 88 30.01 1015.5
17 11:53 Vrbl 5 10.00 Fair CLR 82 54 38% 81 30.03 1016.3
17 10:53 Vrbl 3 10.00 Fair CLR 73.9 53.1 73.9 51.1 48% 30.05 1017.0
17 09:53 NW 6 10.00 Fair CLR 66.9 53.1 61% 30.07 1017.6
17 08:53 Calm 10.00 Fair CLR 59 52 78% 30.08 1018.3
17 07:53 Vrbl 3 10.00 Overcast OVC003 53.1 51.1 93% 30.08 1018.3
17 06:53 N 5 10.00 Overcast OVC003 52 48.9 89% 30.08 1018.1
17 05:53 NW 7 10.00 Overcast OVC004 53.1 50 89% 30.06 1017.6
17 04:53 Calm 10.00 Mostly Cloudy BKN005 51.1 48 57.9 51.1 89% 30.06 1017.3
17 03:53 NW 6 10.00 Fair CLR 53.1 50 89% 30.04 1016.8
17 02:53 NW 6 10.00 Fair CLR 54 50 87% 30.05 1017.0
17 01:53 NW 8 10.00 Fair CLR 55 50 83% 30.04 1016.6
17 00:53 NW 7 10.00 Fair CLR 55.9 50 81% 30.05 1016.9
16 23:53 NW 9 10.00 Fair CLR 57.9 51.1 78% 30.04 1016.7
16 22:53 NW 8 10.00 Fair CLR 61 51.1 80.1 61 70% 30.04 1016.7
16 21:53 W 10 10.00 Fair CLR 64.9 52 63% 30.03 1016.3
16 20:53 S 8 10.00 Fair CLR 64.9 52 63% 30.01 1015.9
16 19:53 S 12 10.00 Fair CLR 69.1 51.1 53% 29.99 1015.2
16 18:53 S 17 G 25 10.00 Fair CLR 73.9 51.1 45% 29.97 1014.4
16 17:53 S 17 G 26 10.00 Fair CLR 77 51.1 40% 78 29.97 1014.1
16 16:53 S 21 G 29 10.00 Fair and Breezy CLR 80.1 51.1 86 73.9 37% 80 29.98 1014.7
16 15:53 S 20 G 30 10.00 Fair CLR 82 51.1 34% 81 29.99 1014.9
16 14:53 S 18 10.00 Fair CLR 84 52 33% 82 30 1015.1
16 13:53 S 15 10.00 Fair CLR 84.9 53.1 33% 83 30.02 1015.7
16 12:53 SW 9 10.00 Fair CLR 86 53.1 32% 84 30.03 1016.2
16 11:53 SW 7 10.00 Fair CLR 82 52 35% 81 30.05 1016.8
Date Time (pdt) Wind (mph) Vis. (mi.) Weather Sky Cond. Air Dwpt Max. Min. Relative Humidity Wind Chill (°F) Heat Index (°F) altimeter (in) sea level (mb) 1 hr 3 hr 6 hr
6 hour
Temperature (ºF) Pressure Precipitation (in)